Weather History for Sigonella, Italy

Change the Weather History Date:

Tuesday, June 25, 2013

  Actual Average Record
Temperature  
Mean Temperature 75 °F -  
Max Temperature 88 °F 91 °F 111 °F (2007)
Min Temperature 62 °F 65 °F 59 °F (1999)
Cooling Degree Days 10    
Growing Degree Days 25 (Base 50)    
Moisture  
Dew Point 58 °F    
Average Humidity 60    
Maximum Humidity 95    
Minimum Humidity 24    
Precipitation  
Precipitation 0.00 in 0.00 in - ()
Sea Level Pressure  
Sea Level Pressure 29.99 in    
Wind  
Wind Speed 6 mph ()    
Max Wind Speed 17 mph    
Max Gust Speed -    
Visibility 6.1 miles    
Events      
Averages and records for this station are not official NWS values.
T = Trace of Precipitation, MM = Missing Value Source: Averaged Metar Reports

Daily Weather History Graph

Daily Weather History Graph

Search for Another Location

Airport:

Trip Planner

Search our weather history database for the weather conditions in past years. The results will help you decide how hot, cold, wet, or windy it might be!

Date:

Astronomy

Jun. 25, 2013 Rise Set
Actual Time 5:40 AM CEST 8:25 PM CEST
Civil Twilight 5:09 AM CEST 8:56 PM CEST
Nautical Twilight 4:30 AM CEST 9:35 PM CEST
Astronomical Twilight 3:46 AM CEST 10:18 PM CEST
Moon 10:02 PM CEST (6/25) 7:56 AM CEST (6/25)
Length of Visible Light 15h 46m
Length of Day
14h 44m
Waning Gibbous, 94% of the Moon is Illuminated
Jun 25
Waning Gibbous
Jun 30
Last Quarter
Jul 8
New
Jul 16
First Quarter
Jul 22
Full

Hourly Weather History & Observations

Time (CEST) Temp. Heat Index Dew Point Humidity Pressure Visibility Wind Dir Wind Speed Gust Speed Precip Events Conditions
12:55 AM 68.0 °F - 59.0 °F 73% 29.95 in - West 8.1 mph - N/A   Clear
1:55 AM 66.2 °F - 59.0 °F 78% 29.95 in - West 1.2 mph - N/A   Clear
2:00 AM 66 °F - 60 °F 75% 29.97 in 6 mi West 1.2 mph - -  
2:55 AM 66.2 °F - 60.8 °F 83% 29.95 in - WSW 2.3 mph - N/A   Clear
3:55 AM 66.2 °F - 60.8 °F 83% 29.95 in - West 8.1 mph - N/A   Clear
4:55 AM 66.2 °F - 60.8 °F 83% 29.95 in - West 8.1 mph - N/A   Clear
5:00 AM 67 °F - 61 °F 74% 29.97 in 6 mi West 8.1 mph - -  
5:55 AM 66.2 °F - 57.2 °F 73% 29.98 in - WSW 3.5 mph - N/A   Clear
6:55 AM 64.4 °F - 59.0 °F 83% 29.98 in - South 2.3 mph - N/A   Clear
7:55 AM 69.8 °F - 55.4 °F 60% 29.98 in - West 4.6 mph - N/A   Clear
8:00 AM 70 °F - 56 °F 52% 30.00 in 6 mi West 4.6 mph - -  
8:55 AM 71.6 °F - 55.4 °F 57% 30.01 in 6.2 mi WNW 4.6 mph - N/A   Partly Cloudy
9:55 AM 75.2 °F - 55.4 °F 50% 30.01 in 6.2 mi SSE 2.3 mph - N/A   Partly Cloudy
10:55 AM 82.4 °F - 51.8 °F 35% 30.01 in 6.2 mi WNW 3.5 mph - N/A   Partly Cloudy
11:00 AM 82 °F - 52 °F 25% 30.01 in 6 mi WNW 3.5 mph - -   Scattered Clouds
11:55 AM 82.4 °F - 50.0 °F 32% 30.01 in 6.2 mi NNW 2.3 mph - N/A   Partly Cloudy
12:55 PM 86.0 °F - 48.2 °F 27% 30.01 in 6.2 mi SE 11.5 mph - N/A   Partly Cloudy
1:55 PM 84.2 °F 82.8 °F 53.6 °F 35% 29.98 in 6.2 mi East 16.1 mph - N/A   Partly Cloudy
2:00 PM 84 °F - 53 °F 24% 29.99 in 6 mi East 16.1 mph - -   Scattered Clouds
2:55 PM 80.6 °F 80.8 °F 57.2 °F 45% 29.98 in 6.2 mi ESE 17.3 mph - N/A   Partly Cloudy
3:55 PM 80.6 °F 80.8 °F 57.2 °F 45% 29.98 in 6.2 mi ESE 16.1 mph - N/A   Partly Cloudy
4:55 PM 82.4 °F 82.5 °F 59.0 °F 45% 30.01 in 6.2 mi East 17.3 mph - N/A   Partly Cloudy
5:00 PM 82 °F - 58 °F 34% 30.01 in 6 mi East 17.3 mph - -   Scattered Clouds
5:55 PM 80.6 °F 81.1 °F 59.0 °F 48% 29.98 in 6.2 mi East 16.1 mph - N/A   Partly Cloudy
6:55 PM 78.8 °F - 57.2 °F 47% 29.98 in 6.2 mi East 13.8 mph - N/A   Partly Cloudy
7:55 PM 77.0 °F - 62.6 °F 61% 30.01 in - East 13.8 mph - N/A   Clear
8:00 PM 76 °F - 62 °F 53% 30.01 in 6 mi East 13.8 mph - -  
8:55 PM 71.6 °F - 66.2 °F 83% 30.01 in - East 10.4 mph - N/A   Clear
9:55 PM 69.8 °F - 66.2 °F 88% 30.04 in - ESE 3.5 mph - N/A   Clear
10:55 PM 68.0 °F - 66.2 °F 94% 30.04 in - SE 1.2 mph - N/A   Clear
11:00 PM 68 °F - 67 °F 95% 30.04 in 6 mi SE 1.2 mph - -  
11:55 PM 66.2 °F - 64.4 °F 94% 30.04 in - SW 2.3 mph - N/A   Clear